Regional Weather Roundup
Issued by NWS Goodland, KS

Home | Current Version | Previous Version | Text Only | Print | Product List | Glossary On
Versions: 1 2 3 4 5 6 7 8 9 10 11 12 13 14 15 16 17 18 19 20 21 22 23 24 25 26 27 28 29 30 31 32 33 34 35 36 37 38 39 40 41 42 43 44 45 46 47 48 49 50
000
ASUS43 KGLD 271208
RWRGLD

GOODLAND FORECAST AREA HOURLY WEATHER ROUNDUP
NATIONAL WEATHER SERVICE GOODLAND KS
500 AM MST MON FEB 27 2017

...OFFICIAL OBSERVATIONS...

CITY           SKY/WX    TMP DP  RH WIND       PRES   REMARKS
GOODLAND KS    CLOUDY    25  21  85 S15       29.78F WCI  13
HILL CITY KS   CLEAR     24  16  71 SE3       29.89R
IMPERIAL NEB   CLOUDY    18  10  71 N3        29.82S
MCCOOK NEB     CLEAR     14   8  77 CALM      29.86F
AKRON CO       CLOUDY    21   9  59 CALM      29.73R
BURLINGTON CO  CLOUDY    23  15  71 S12       29.76F WCI  12
LIMON CO       CLOUDY     4   1  88 N3        29.73S
$$

...UNOFFICIAL OBSERVATIONS...

CITY           SKY/WX    TMP DP  RH WIND       PRES   REMARKS
LENORA KS        N/A     21  32 100 CALM        N/A
SHARON SPRINGS   N/A     22  17  82 SE12        N/A  WCI  11
TRENTON NEB      N/A     20  32 100 CALM        N/A
KIT CARSON CO    N/A     14   6  70 CALM        N/A
YUMA CO        FAIR      16  10  79 S6        29.75S
$$



USA.gov is the U.S. government's official web portal to all federal, state and local government web resources and services.